COSMOS 2251 DEB, 34274

Orbit data source: Space-Track

COSMOS 2251 DEB, 34274 is space debris in LEO originally from a launch on Wed, 16 Jun 1993 UTC launched from the Plesetsk Missile And Space Complex (PKMTR). The debris from Iridium 33, an American commercial communications satellite, has been tracked extensively since its accidental collision with the defunct Russian satellite Cosmos 2251 in 2009. This event, occurring at high speed in low Earth orbit (LEO), generated thousands of pieces of space debris, significantly increasing the risk of further collisions. The Iridium 33 debris cloud has impacted space traffic management and orbital debris mitigation strategies, making it a subject of ongoing study in space situational awareness.

Loading next visibility...
Identifier
34274, 1993-036LU
Orbit
LEO
Country
Flag of CISCIS
Related business
Manufacturer
Unknown
Mission
Spacecraft
Bus & Motor
Unknown
Mass
Unknown
Launch date (UTC)
1993-06-16 (33 years ago)
Launch vehicle
Unknown
Launch site
Plesetsk Missile And Space Complex (PKMTR)
Object type
Payload
Rocket body
Debris
Shape & HBR
Unknown shape, 0.1 m
Radar Cross Section
Medium (>0.1 m² and <1 m²)

Expand to show TLE details & history
Last TLE update: 2 days ago

TLE from 2 days ago
0 COSMOS 2251 DEB
1 34274U 93036LU  26252.06458005  .00003561  00000-0  63260-3 0  9991
2 34274  74.0002 266.4547 0023203 337.7625  52.0128 14.67401375926386
Epoch: 2026-09-09T01:32Z
TLE epoch observation values (Epoch: 2026-09-09T01:32:59.716Z)
Latitude
28.76638°
Longitude
-95.90838°
Altitude
662.605 km
Speed
7.534 km/s
True Right ascension
18h 21m 50s
True Declination
28° 37' 11"
Sunlit
Object was in daylight at epoch
Visualization orbit readout
Latitude
Unknown
Longitude
Unknown
Altitude
Unknown
Speed
Unknown
Apparent Right ascension
Unknown
Apparent Declination
Unknown
Sunlit
N/A
Visualization observer readout
Local Sidereal Time
01:37:53
Azimuth
Unknown
Elevation
Unknown
Doppler factor
Unknown
Orbital elements
Apogee altitude
683.315 km
Perigee altitude
650.622 km
Semi-major axis
7,045.106 km
Eccentricity
0.00232
Inclination
74.0002°
RAAN
266.4547°
Arg. of periapsis
337.7625°
True anomaly
52.22273°
Mean anomaly
52.0128°
Eccentric anomaly
52.11773°
Mean motion
3.67039 °/min
Orbital period
98.08 mins
BSTAR
0.0006326
Loading maneuver chart data...
Computing Atmospheric mass density...

Documentation

Showing up to 5 results
|